Погода в Гранд Бэй

Маврикий     20°00′44″S   57°35′10″E
темп.,
°C
ветер,
м/с
пор.,
м/с
влажн.,
%
обл.,
%
осадки,
мм/ч
давл.,
гПа
погр.,
м
10 августа, ср
ср1001:00+21ююв8106949 0.1 10221074
04:00+20юв911705 0.1 1021959
07:00+21юв9116181 0.0 10221521
10:00+21вюв11136349 0.0 10241683
13:00+22вюв1113659 0.1 10221564
16:00+22вюв1213648 0.1 10211526
19:00+21вюв11136790 0.1 10231598
22:00+21вюв11137083 0.3 10241438
11 августа, чт
чт1101:00+21вюв11137184 0.3 10231303
04:00+21вюв10127186 0.6 10231496
07:00+21вюв11126819 0.3 10241446
10:00+21вюв11136859 0.4 10251473
13:00+21вюв10126993 0.1 10231404
16:00+22вюв10116831 0.3 10221348
19:00+21вюв10116567 0.1 10231599
22:00+21вюв10117486 0.3 10251189
12 августа, пт
пт1201:00+21вюв10116071 0.2 10241539
04:00+20вюв91178100 0.6 1023984
07:00+21вюв11127393 0.4 10241196
10:00+22вюв1111645 0.5 10241369
13:00+22в1011668 0.0 10231325
16:00+22вюв1111664 0.1 10221357
19:00+22вюв1011677 0.1 10231379
22:00+22вюв10116358 0.6 10231538
13 августа, сб
сб1301:00+21вюв10106884 0.3 10231166
04:00+21вюв9107092 0.5 10221254
07:00+21вюв9106993 0.3 10231140
10:00+22вюв10116367 0.4 10231657
13:00+22в910639 0.0 10211411
16:00+22вюв10106392 0.1 10201324
19:00+21вюв8107087 0.1 10221288
22:00+21вюв896684 0.3 10221194
14 августа, вс
вс1401:00+21в897089 0.4 10221141
04:00+21в9107176 0.9 10201274
07:00+21в8106260 0.3 10221607
10:00+21в897091 0.6 10231133
13:00+22в9106911 0.6 10201183
16:00+22в996629 0.6 10191023
19:00+22вюв896983 0.1 1021953
22:00+22в9970100 0.1 1021832